Location: Baili�vre
(50.0696°N, 4.2409°E)
Time: 10:39:58
(UTC+00:00)

Cosmos 1833 - Pass Details

Date: 08 August 2020
Orbit: 836 x 863 km, 70.9° (Epoch: 20 September)

Event Time Altitude Azimuth Distance (km) Brightness Sun altitude
Exits shadow 23:28:30 57° 205° (SSW) 985 4.2 -24.0°
Maximum altitude 23:29:44 88° 116° (ESE) 847 4.1 -24.0°
Drops below altitude 10° 23:35:25 10° 30° (NNE) 2,472 7.4 -24.1°
Sets 23:37:53 0° 30° (NNE) 3,415 8.2 -24.1°
